Hourly Data Report for October 20, 2014

All times are specified in Local Standard Time (LST). Add 1 hour to adjust for Daylight Saving Time where and when it is observed.

OTTAWA INTL A
ONTARIO

45°19'00.000" N
75°40'00.000" W
114.90 m
6106001
71628
YOW

Download Data

Hourly Data (October 2014)
Hourly Data Report for October 20, 2014
Temp Definition
°C
Dew Point Temp Definition
°C
Rel Hum Definition
%
Wind Dir Definition
10's deg

Wind Spd Definition
km/h
Visibility Definition
km
Stn Press Definition
kPa
Hmdx Definition


Wind Chill Definition


Weather Definition


TIME
00:00 Legend Double Dagger -0.2 -3.1 81 26 9 24.1 100.20   -3 LegendNANA
01:00 Legend Double Dagger 0.0 -2.4 84 21 7 24.1 100.21   -2 Mostly Cloudy
02:00 Legend Double Dagger -1.5 -2.8 91 19 5 24.1 100.21   -3 LegendNANA
03:00 Legend Double Dagger -1.4 -2.7 91 20 4 24.1 100.17   -3 LegendNANA
04:00 Legend Double Dagger -2.4 -3.5 92 19 6 24.1 100.15   -5 Mostly Cloudy
05:00 Legend Double Dagger -0.9 -2.5 89 18 5 24.1 100.12   -3 LegendNANA
06:00 Legend Double Dagger -1.1 -2.4 91 13 4 24.1 100.10   -2 LegendNANA
07:00 Legend Double Dagger 0.3 -1.2 90 14 5 24.1 100.10     Mostly Cloudy
08:00 Legend Double Dagger 1.4 -1.0 84 12 7 24.1 100.12     LegendNANA
09:00 Legend Double Dagger 2.6 -0.5 80 11 9 24.1 100.11     LegendNANA
10:00 Legend Double Dagger 3.6 0.1 78 8 5 24.1 100.09     Mostly Cloudy
11:00 Legend Double Dagger 4.6 0.4 74 8 9 24.1 100.04     LegendNANA
12:00 Legend Double Dagger 5.4 0.8 72 9 9 24.1 99.94     LegendNANA
13:00 Legend Double Dagger 6.3 1.8 73 14 8 24.1 99.91     Rain
14:00 Legend Double Dagger 6.3 3.3 81 12 10 16.1 99.89     Rain
15:00 Legend Double Dagger 6.6 5.1 90 13 7 24.1 99.87     Rain
16:00 Legend Double Dagger 6.5 5.5 93 11 10 12.9 99.86     Rain
17:00 Legend Double Dagger 6.2 5.5 95 10 9 16.1 99.86     Rain
18:00 Legend Double Dagger 5.0 4.3 95 6 11 16.1 99.91     Rain
19:00 Legend Double Dagger 4.3 3.3 93 6 16 16.1 99.92     Rain
20:00 Legend Double Dagger 4.2 3.5 95 6 11 24.1 99.92     Rain
21:00 Legend Double Dagger 4.1 3.7 97 5 10 8.1 99.91     Rain,Fog
22:00 Legend Double Dagger 4.2 3.9 98 5 13 12.9 99.91     Rain
23:00 Legend Double Dagger 4.3 4.0 98 6 20 11.3 99.88     Rain

Notes on Data Quality.

Legend

  • E = Estimated
  • M = Missing
  • NA = Not Available
  • ‡ = Partner data that is not subject to review by the National Climate Archives
Date modified: